Location: Poughquag
(41.6090°N, 73.6820°W)
Time: 12:29:08
(UTC-04:00)

A-11 Canister half - Pass Details

Date: 06 June 2020
Orbit: 1527 x 1682 km, 47.3° (Epoch: 06 July)

Event Time Altitude Azimuth Distance (km) Brightness Sun altitude
Rises 06:16:44 0° 231° (SW) 4,683 10.9 8.4°
Reaches altitude 10° 06:19:47 10° 230° (SW) 3,694 10.5 8.9°
Maximum altitude 06:29:02 74° 147° (SSE) 1,578 9.4 10.5°
Drops below altitude 10° 06:38:21 10° 65° (ENE) 3,723 14.0 12.2°
Sets 06:41:26 0° 64° (ENE) 4,722 13.6 12.7°
